Погода Большое Нарымское

Погода Большое Нарымское : погода сейчас, прогноз погоды и архив. Всё, что Вы хотите узнать о погоде Большое Нарымское!

Поиск расширенной информации на нашем сайте:

Полезная информация: последние блоки аренда офиса в бизнес центре ЭКО , Мироновская ул., 25 описание помещений на сайте

Другие новости

Новости СМИ2

Главная страница сайта

Новости сайта

03.07.2017

Напоминаем, что на нашем специализированном сайте Метеоцентр.Азия вы можете получить высокодетализированные автоматические прогнозы погоды по пунктам России, СНГ и мира в авиационном формате (включающие направление и скорость ветра, видимость, явления погоды, количество и форму облачности, нижнюю и верхнюю границу облачности).

Рекомендуем: Самая актуальная информация напосим курс тут.

Погода Большое Нарымское - сегодня

Время (UTC), дата Ветер
(°,м/с) 
Видим.   Явления Облачность Т
(°С)
Тd
(°С)
f(%) Тe
(°С)
Pmin
(гПа)
dP
(гПа)
Po
(мм)
O2
(г/м3)
Тmin Tmax R s Состояние
почвы
09 17.07.18 240 (ЮЗ) 20000 м  {гроза, ливн. осадки}  9/6 1000 м кучево-дожд., средняя, верхняя 
[Cb cap|Ac und|Cc]
+25.2 +15.1 54 +35  998.8  0.3  716  261           
12 17.07.18 330 (СЗ) 4000 м  слаб. ливневой дождь{гроза}  10/8 600 м кучево-дожд., средняя 
[Cb cap|Ac As]
+22.6 +16.1 67 +35  1000.2  0.9  717  263           
15 17.07.18 тихо ()   20000 м  {ливн. осадки}  8/4 600 м кучево-дожд., средняя, верхняя 
[Cb cap|Ac lent|Ci fib]
+19.7 +18.6 93 +37  1001.5  0.9  717  265    +28       
21 17.07.18 060 (СВ) н/о    4/3 1500 м верхняя 
[Sc|Ci fib]
+14.1 +13.2 94 +22  1002.9  0.3  718  272           
00 18.07.18 тихо ()   20000 м    9/4 1500 м средняя, верхняя 
[Sc|Ac trans|Ci fib]
+15.2 +13.5 90 +22  1003.8  718  271           
03 18.07.18 280 (З) 20000 м    9/8 1000 м кучево-дожд., средняя 
[Cb cap|Ac As]
+20 +15.5 75 +31  1003.8  0.8  719  267           
06 18.07.18 220 (ЮЗ) 20000 м    8/6 1000 м кучево-дожд., средняя 
[Cb cap|Ac As]
+23.7 +14.2 55 +32  1003.1  -0.2  719  264  +13.5         
09 18.07.18 290 (З) 20000 м    9/9 1000 м кучево-дожд. 
[Cb cap]
+25 +12.4 45 +31  1001.8  -1  718  263           
12 18.07.18 290 (З) 20000 м    8/5 1000 м кучево-дожд., верхняя 
[Cb cap|Ci fib]
+27.2 +8.9 32 +28  1002.3  0.7  719  262           
15 18.07.18 030 (СВ) 20000 м  {гроза}  9/9 1000 м кучево-дожд. 
[Cb cap]
+22 +8.2 41 +22  1005.4  2.2  720  267    +28.2       
18 18.07.18 110 (В) н/о  {гроза}  10/8 1000 м кучево-дожд., средняя 
[Cb cap|Ac As]
+18.4 +11.6 65 +23  1006.1  0.2  720  270    +28.2       
21 18.07.18 120 (ЮВ) н/о    9/6 1000 м кучево-дожд., средняя 
[Cb cap|Ac und]
+14.6 +12.1 85 +21  1007.2  0.4  721  273           
00 19.07.18 030 (СВ) 20000 м    9/4 1500 м средняя, верхняя 
[Sc|Ac lent|Cc]
+14.6 +10.9 78 +18  1008.1  0.9  721  274           
03 19.07.18 270 (З) 20000 м    8/3 1500 м средняя, верхняя 
[Cu med, cong|Ac trans|Ci fib]
+18.9 +12.4 66 +25  1007.8  0.4  722  269           
06 19.07.18 150 (ЮВ) 20000 м    9/6 1000 м кучево-дожд., средняя, верхняя 
[Cb cap|Ac lent|Ci fib]
+21.8 +10.3 48 +24  1007.3  -0.1  722  267  +11.6         
09 19.07.18 170 (Ю) 20000 м    8/4 1000 м кучево-дожд., средняя, верхняя 
[Cb cap|Ac lent|Ci fib]
+24.3 +10.3 41 +27  1006.2  -0.7  721  265           
12 19.07.18 330 (СЗ) 20000 м    4/4 1500 м 
[Cu med, cong]
+25.6 +6.9 30 +26  1005.9  -0.1  721  264           
15 19.07.18 110 (В) 20000 м    3/3 1500 м 
[Sc diur, vesp]
+20.1 +11 56 +23  1007.6  0.8  722  269    +26.1       
18 19.07.18 080 (В) н/о    ясно 
+12.6 +7.8 73 +13  1009  0.2  722  277    +26.1       
21 19.07.18 030 (СВ) н/о    ясно 
+11 +8.4 84 +12  1009  -0.3  721  278           
00 20.07.18 тихо ()   20000 м    ясно 
+11.7 +8.8 82 +12  1009.8  0.9  722  277           
03 20.07.18 270 (З) 20000 м    ясно 
+20.6 +8.6 46 +21  1008  -0.3  722  269           
06 20.07.18 100 (В) 20000 м    1/1 1500 м 
[Cu hum]
+25 +10.1 39 +27  1005.3  -1.9  720  264  +9.5         
09 20.07.18 210 (ЮЗ) 20000 м    4/3 1500 м средняя, верхняя 
[Cu med, cong|Ac lent|Ci fib]
+28.2 +10 32 +30  1003.3  -1.5  719  261           
12 20.07.18 260 (З) 20000 м    8/3 1500 м средняя, верхняя 
[Cu Sc|Ac lent|Ci fib]
+27.6 +13.3 41 +35  1002.8  -0.5  719  260           
Время (UTC), дата Ветер
(°,м/с) 
Видим.   Явления Облачность Т
(°С)
Тd
(°С)
f(%) Тe
(°С)
Pmin
(гПа)
dP
(гПа)
Po
(мм)
O2
(г/м3)
Тmin Tmax R s Состояние
почвы

Для получения пояснительной информации подведите курсор к названию столбца.

ПОГОДА Большое Нарымское - архив

Всё, что Вы хотите узнать о погоде Большое Нарымское - удобно и подробно!

Выберите нужную дату (начиная с 1 января 2015* года) и нажмите кнопку "Найти".
Будут отображены архивные сводки погоды по пункту Большое Нарымское, начиная с указанной даты.


Отображать данные в формате CSV (для использования в таблицах Excel)


Внимание! Наш архив погоды предназначен исключительно для личного некоммерческого использования в познавательных целях. Если Вам необходимы официальные справки о состоянии погоды (для производственных, юридических, коммерческих и т.п. целей), обращайтесь в органы Росгидромета.

*Примечание: данная дата относится к архиву по метеостанциям СССР (Россия, СНГ, Балтия).
Архив по метеостанциям Зарубежной Европы и Азии (кроме Китая) хранится 10 дней, по другим регионам земного шара (Китай, Африка, Америка, Австралия, Океания) - 1 день.

Большое Нарымское - район местоположения метеостанции


Название, широта, долгота, высота метеостанции:
Большое Нарымское 49.2°ш. 84.5°д. 401 м над ур. моря [Казахстан]

Дополнительная информация

В oтличие oт бoльшинства пoгoдных сайтoв мы публикуем пoдрoбную метеoинфoрмацию в детальнoм прoфессиoнальнoм фoрмате.

Характеристики температуры и влажнoсти вoздуха измеряются на высoте 2 м в тени вдали oт зданий и деревьев.
Скoрoсть ветра измеряется на высoте 10 м (на урoвне рoста челoвека скoрoсть ветра ниже в 1.5-2 раза). Если метеoстанция нахoдится в гoрoде или в лесу, тo скoрoсть ветра занижена на 2-4 м/с пo сравнению с oткрытым местoм. Скoрoсть ветра над акватoриями крупных рек и oзёр, а также на вершинах хoлмoв на 2-5 м/с выше, чем в oбычных услoвиях.
Атмoсфернoе давление в разных тoчках местнoсти мoжет значительнo oтличаться oт давления на метеoстанции, в зависимoсти oт услoвий рельефа (при пoдъёме на 10 м давление пoнижается примернo на 1 мм рт.ст.).